Regional Weather Roundup
Issued by NWS

Home | Current Version | Previous Version | Graphics & Text | Print | Product List | Glossary On
Versions: 1 2 3 4 5 6 7 8 9 10 11 12 13 14 15 16 17 18 19 20 21 22 23 24 25 26 27 28 29 30 31 32 33 34 35 36 37 38 39 40 41 42 43 44 45 46 47 48 49 50
000
ASUS45 KPSR 181700
RWRAZ

PRELIMINARY ARIZONA REGIONAL HOURLY WEATHER ROUNDUP
NATIONAL WEATHER SERVICE PHOENIX AZ
1000 AM MST FRI APR 18 2014

NOTE: FAIR INDICATES FEW OR NO CLOUDS BELOW 12,000 FEET WITH NO
SIGNIFICANT WEATHER AND/OR OBSTRUCTIONS TO VISIBILITY.

AZZ001>003-036-181800-
NORTHWEST ARIZONA

CITY           SKY/WX    TMP DP  RH WIND       PRES   REMARKS
KINGMAN        CLOUDY    68  23  18 SE16      29.95R
$$

AZZ004>008-015-016-018-181800-
NORTH CENTRAL ARIZONA

CITY           SKY/WX    TMP DP  RH WIND       PRES   REMARKS
GRAND CANYON   CLOUDY    59  21  23 S12       30.12R
WILLIAMS       CLOUDY    55  21  26 SE12      30.19S
PRESCOTT       CLOUDY    63  28  26 SE13G21   30.06R
FLAGSTAFF      CLOUDY    52  24  33 S9        30.15R
PAYSON         CLOUDY    64  27  24 S8        30.11S
PAGE           PTSUNNY   68  22  17 W3        29.99S
$$

AZZ009>014-017-181800-
NORTHEAST ARIZONA

CITY           SKY/WX    TMP DP  RH WIND       PRES   REMARKS
WINSLOW        NOT AVBL
SAINT JOHNS    CLOUDY    71  19  14 S18       30.07S
WINDOW ROCK    PTSUNNY   66  17  15 VRB5      30.15F
SHOW LOW       CLOUDY    63  19  19 S21       30.15S
$$

AZZ023-181800-
GREATER PHOENIX AREA

CITY           SKY/WX    TMP DP  RH WIND       PRES   REMARKS
PHOENIX        CLOUDY    79  38  22 SE7       29.92R
GLENDALE       CLOUDY    79  36  21 E3        29.94R
DEER VALLEY    CLOUDY    78  32  18 SE10      29.93R
SCOTTSDALE     CLOUDY    78  36  21 S7        29.95R
MESA-GATEWAY   PTSUNNY   79  37  22 SE7       29.96R
CHANDLER       CLOUDY    77  39  25 CALM      29.94R
$$

AZZ027-028-181800-
SOUTHWEST MARICOPA COUNTY AND PINAL COUNTY

CITY           SKY/WX    TMP DP  RH WIND       PRES   REMARKS
CASA GRANDE    CLOUDY    75  39  27 CALM      29.96R
GILA BEND      CLOUDY    81  36  19 SE7       29.92R
$$

AZZ503-504-507>509-181800-
SOUTHEAST ARIZONA

CITY           SKY/WX    TMP DP  RH WIND       PRES   REMARKS
TUCSON         CLOUDY    75  36  24 SW8       30.02R
DAVIS-MONTHAN  CLOUDY    73  39  29 S3        30.01R
RYAN FIELD       N/A     75  32  20 SW5       30.02R
NOGALES        CLOUDY    69  40  34 S7        30.05R
SAFFORD        CLOUDY    71  25  17 SE6       30.02R
$$

AZZ020-021-025-026-031-181800-
SOUTHWEST ARIZONA

CITY           SKY/WX    TMP DP  RH WIND       PRES   REMARKS
YUMA           NOT AVBL
$$

CAZ031-033-041-043-047-048-061-181800-
SOUTHERN CALIFORNIA

CITY           SKY/WX    TMP DP  RH WIND       PRES   REMARKS
DOWNTOWN L.A.  CLOUDY    66  51  58 VRB3      29.92R
L.A. AIRPORT   PTSUNNY   66  52  60 SE6       29.93R
SAN DIEGO      CLOUDY    63  54  72 S6        29.95R
BURBANK        CLOUDY    62  51  67 CALM      29.93R
ONTARIO        CLOUDY    62  52  69 S5        29.94R HAZE
RIVERSIDE      PTSUNNY   63  52  67 VRB3      29.94R
PALM SPRINGS   PTSUNNY   73  47  39 CALM      29.88R
IMPERIAL       PTSUNNY   74  59  59 VRB3      29.82R
BLYTHE         CLOUDY    74  46  36 S14       29.85R
$$

NVZ020-UTZ003-181800-
SOUTHERN NEVADA-UTAH

CITY           SKY/WX    TMP DP  RH WIND       PRES   REMARKS
LAS VEGAS      NOT AVBL
SALT LAKE CITY CLOUDY    64  31  28 NW9       29.92R
$$

NMZ009-TXZ055-181800-
NEW MEXICO-WEST TEXAS

CITY           SKY/WX    TMP DP  RH WIND       PRES   REMARKS
ALBUQUERQUE    PTSUNNY   63  26  24 VRB7      30.17F
EL PASO        CLOUDY    67  41  38 E10       30.12F
$$


........................KEY........................
SKY/WX - SKY CONDITION/WEATHER
TMP    - TEMPERATURE IN FAHRENHEIT
DP     - DEW POINT IN FAHRENHEIT
RH     - RELATIVE HUMIDITY IN PERCENT
WIND   - DIRECTION AND SPEED IN MILES PER HOUR (MPH)
VRB    - VARIABLE WIND DIRECTION
PRES   - MEAN SEA LEVEL PRESSURE IN INCHES OF MERCURY
         F - FALLING PRESSURE   R - RISING PRESSURE
         S - STEADY PRESSURE
VSB    - VISIBILITY IN MILES
HX     - HEAT INDEX IN FAHRENHEIT
WCI    - WIND CHILL INDEX IN FAHRENHEIT
TC     - TEMPERATURE IN CELSIUS WHICH IS ALSO KNOWN AS
         TEMPERATURE IN CENTIGRADE
AFB    - AIR FORCE BASE
         LUKE AFB IS LUKE AIR FORCE BASE
         DAVIS-MONTHAN IS DAVIS-MONTHAN AIR FORCE BASE
NAS    - NAVAL AIR STATION
         EL CENTRO NAS IS EL CENTRO NAVAL AIR STATION
N/A    - NOT AVAILABLE



USA.gov is the U.S. government's official web portal to all federal, state and local government web resources and services.